When you browse on this site, cookies collect data to enhance your experience and personalize the content and advertising you see.
Visit our Privacy Policy to learn more. By continuing to use the site, you agree to this use of cookies and data.
  • In Romania
  • List of Countries
  • For 7 days
  • Water Temperature
  • Weather Map
  • Weather Widgets
  • user-avatar
    Login

    Hourly Weather Haflong

    Today, 22 January, Wednesday

    Time Temperature Precipitation Wind Pressure Humidity
    00:00 +12°C° 0 mm 1 mps 727 mmHg 61%
    01:00 +12°C° 0 mm 1 mps 727 mmHg 65%
    02:00 +12°C° 0 mm 1 mps 727 mmHg 69%
    03:00 +11°C° 0 mm 1 mps 726 mmHg 72%
    04:00 +11°C° 0 mm 1 mps 726 mmHg 73%
    05:00 +10°C° 0 mm 0 mps 726 mmHg 73%
    06:00 +10°C° 0 mm 0 mps 726 mmHg 78%
    07:00 +13°C° 0 mm 0 mps 727 mmHg 67%
    08:00 +15°C° 0 mm 0 mps 728 mmHg 56%
    09:00 +18°C° 0 mm 0 mps 729 mmHg 46%
    10:00 +20°C° 0 mm 0 mps 728 mmHg 40%
    11:00 +23°C° 0 mm 1 mps 728 mmHg 35%
    12:00 +25°C° 0 mm 1 mps 727 mmHg 30%
    13:00 +25°C° 0 mm 1 mps 726 mmHg 30%
    14:00 +24°C° 0 mm 1 mps 726 mmHg 30%
    15:00 +24°C° 0 mm 2 mps 725 mmHg 31%
    16:00 +21°C° 0 mm 1 mps 725 mmHg 40%
    17:00 +19°C° 0 mm 1 mps 724 mmHg 50%
    18:00 +15°C° 0 mm 1 mps 724 mmHg 60%
    19:00 +14°C° 0 mm 1 mps 725 mmHg 60%
    20:00 +14°C° 0 mm 1 mps 725 mmHg 61%
    21:00 +13°C° 0 mm 1 mps 726 mmHg 61%
    22:00 +13°C° 0 mm 1 mps 725 mmHg 61%
    23:00 +12°C° 0 mm 1 mps 725 mmHg 62%

    Tomorrow, 23 January, Thursday

    Time Temperature Precipitation Wind Pressure Humidity
    00:00 +12°C° 0 mm 1 mps 725 mmHg 63%
    01:00 +12°C° 0 mm 1 mps 724 mmHg 63%
    02:00 +12°C° 0 mm 1 mps 724 mmHg 64%
    03:00 +11°C° 0 mm 1 mps 724 mmHg 64%
    04:00 +11°C° 0 mm 1 mps 724 mmHg 65%
    05:00 +11°C° 0 mm 1 mps 724 mmHg 66%
    06:00 +11°C° 0 mm 1 mps 724 mmHg 67%
    07:00 +14°C° 0 mm 1 mps 725 mmHg 59%
    08:00 +16°C° 0 mm 1 mps 726 mmHg 51%
    09:00 +18°C° 0 mm 0 mps 726 mmHg 43%
    10:00 +21°C° 0 mm 1 mps 726 mmHg 38%
    11:00 +21°C° 0 mm 2 mps 725 mmHg 33%
    12:00 +24°C° 0 mm 2 mps 725 mmHg 28%
    13:00 +23°C° 0 mm 2 mps 724 mmHg 29%
    14:00 +23°C° 0 mm 2 mps 724 mmHg 31%
    15:00 +23°C° 0 mm 2 mps 723 mmHg 32%
    16:00 +19°C° 0 mm 2 mps 723 mmHg 41%
    17:00 +18°C° 0 mm 1 mps 723 mmHg 50%
    18:00 +14°C° 0 mm 1 mps 723 mmHg 59%
    19:00 +14°C° 0 mm 1 mps 723 mmHg 60%
    20:00 +13°C° 0 mm 1 mps 724 mmHg 61%
    21:00 +13°C° 0 mm 1 mps 724 mmHg 62%
    22:00 +12°C° 0 mm 1 mps 724 mmHg 62%
    23:00 +12°C° 0 mm 1 mps 724 mmHg 62%

    Day after tomorrow, 24 January, Friday

    Time Temperature Precipitation Wind Pressure Humidity
    00:00 +12°C° 0 mm 1 mps 724 mmHg 63%
    01:00 +12°C° 0 mm 1 mps 724 mmHg 63%
    02:00 +11°C° 0 mm 1 mps 724 mmHg 64%
    03:00 +11°C° 0 mm 1 mps 723 mmHg 65%
    04:00 +11°C° 0 mm 1 mps 724 mmHg 65%
    05:00 +11°C° 0 mm 1 mps 724 mmHg 66%
    06:00 +11°C° 0 mm 1 mps 724 mmHg 67%
    07:00 +13°C° 0 mm 1 mps 725 mmHg 60%
    08:00 +14°C° 0 mm 0 mps 725 mmHg 53%
    09:00 +17°C° 0 mm 0 mps 726 mmHg 46%
    10:00 +20°C° 0 mm 1 mps 726 mmHg 41%
    11:00 +22°C° 0 mm 1 mps 725 mmHg 36%
    12:00 +23°C° 0 mm 1 mps 725 mmHg 31%
    13:00 +23°C° 0 mm 1 mps 724 mmHg 31%
    14:00 +23°C° 0 mm 1 mps 724 mmHg 30%
    15:00 +23°C° 0 mm 1 mps 723 mmHg 30%
    16:00 +20°C° 0 mm 1 mps 723 mmHg 39%
    17:00 +18°C° 0 mm 1 mps 723 mmHg 47%
    18:00 +14°C° 0 mm 1 mps 723 mmHg 56%
    19:00 +13°C° 0 mm 1 mps 723 mmHg 61%
    20:00 +13°C° 0 mm 1 mps 724 mmHg 66%
    21:00 +12°C° 0 mm 1 mps 725 mmHg 70%
    22:00 +12°C° 0 mm 1 mps 725 mmHg 73%
    23:00 +12°C° 0 mm 1 mps 724 mmHg 75%

    25 January, Saturday

    Time Temperature Precipitation Wind Pressure Humidity
    00:00 +11°C° 0 mm 1 mps 724 mmHg 77%
    01:00 +11°C° 0 mm 1 mps 724 mmHg 77%
    02:00 +11°C° 0 mm 1 mps 724 mmHg 77%
    03:00 +11°C° 0 mm 1 mps 724 mmHg 77%
    04:00 +11°C° 0 mm 1 mps 724 mmHg 76%
    05:00 +10°C° 0 mm 1 mps 724 mmHg 76%
    06:00 +10°C° 0 mm 1 mps 724 mmHg 76%
    07:00 +13°C° 0 mm 1 mps 724 mmHg 68%
    08:00 +15°C° 0 mm 1 mps 725 mmHg 59%
    09:00 +18°C° 0 mm 1 mps 726 mmHg 51%
    10:00 +20°C° 0 mm 1 mps 725 mmHg 46%
    11:00 +22°C° 0 mm 1 mps 725 mmHg 40%
    12:00 +23°C° 0 mm 1 mps 725 mmHg 35%
    13:00 +23°C° 0 mm 1 mps 724 mmHg 35%
    14:00 +23°C° 0 mm 1 mps 723 mmHg 36%
    15:00 +23°C° 0 mm 1 mps 723 mmHg 36%
    16:00 +20°C° 0 mm 1 mps 722 mmHg 46%
    17:00 +18°C° 0 mm 1 mps 722 mmHg 55%
    18:00 +13°C° 0 mm 0 mps 722 mmHg 65%
    19:00 +14°C° 0 mm 1 mps 723 mmHg 68%
    20:00 +13°C° 0 mm 1 mps 723 mmHg 71%
    21:00 +13°C° 0 mm 1 mps 723 mmHg 74%
    22:00 +12°C° 0 mm 1 mps 723 mmHg 74%
    23:00 +12°C° 0 mm 1 mps 723 mmHg 74%

    26 January, Sunday

    Time Temperature Precipitation Wind Pressure Humidity
    00:00 +12°C° 0 mm 1 mps 723 mmHg 75%
    01:00 +12°C° 0 mm 1 mps 723 mmHg 77%
    02:00 +11°C° 0 mm 1 mps 722 mmHg 79%
    03:00 +10°C° 0 mm 0 mps 722 mmHg 81%
    04:00 +10°C° 0 mm 0 mps 722 mmHg 82%
    05:00 +10°C° 0 mm 0 mps 722 mmHg 83%
    06:00 +10°C° 0 mm 0 mps 722 mmHg 85%
    07:00 +12°C° 0 mm 0 mps 723 mmHg 75%
    08:00 +15°C° 0 mm 0 mps 723 mmHg 64%
    09:00 +17°C° 0 mm 0 mps 724 mmHg 54%
    10:00 +20°C° 0 mm 1 mps 723 mmHg 49%
    11:00 +22°C° 0 mm 1 mps 723 mmHg 44%
    12:00 +23°C° 0 mm 1 mps 723 mmHg 39%
    13:00 +23°C° 0 mm 1 mps 722 mmHg 40%
    14:00 +23°C° 0 mm 1 mps 722 mmHg 40%
    15:00 +23°C° 0 mm 1 mps 721 mmHg 40%
    16:00 +21°C° 0 mm 1 mps 721 mmHg 49%
    17:00 +18°C° 0 mm 1 mps 721 mmHg 57%
    18:00 +15°C° 0 mm 1 mps 721 mmHg 65%
    19:00 +14°C° 0 mm 1 mps 722 mmHg 66%
    20:00 +14°C° 0 mm 1 mps 722 mmHg 67%
    21:00 +13°C° 0 mm 1 mps 723 mmHg 68%
    22:00 +13°C° 0 mm 1 mps 723 mmHg 67%
    23:00 +13°C° 0 mm 1 mps 723 mmHg 67%

    27 January, Monday

    Time Temperature Precipitation Wind Pressure Humidity
    00:00 +12°C° 0 mm 1 mps 722 mmHg 66%
    01:00 +12°C° 0 mm 1 mps 722 mmHg 66%
    02:00 +12°C° 0 mm 1 mps 722 mmHg 67%
    03:00 +12°C° 0 mm 1 mps 721 mmHg 67%
    04:00 +12°C° 0 mm 1 mps 721 mmHg 68%
    05:00 +11°C° 0 mm 1 mps 721 mmHg 69%
    06:00 +11°C° 0 mm 1 mps 721 mmHg 70%
    07:00 +13°C° 0 mm 0 mps 722 mmHg 62%
    08:00 +15°C° 0 mm 0 mps 723 mmHg 55%
    09:00 +18°C° 0 mm 0 mps 724 mmHg 47%
    10:00 +19°C° 0 mm 0 mps 723 mmHg 44%
    11:00 +22°C° 0 mm 1 mps 723 mmHg 40%
    12:00 +24°C° 0 mm 1 mps 723 mmHg 37%
    13:00 +23°C° 0 mm 1 mps 722 mmHg 39%
    14:00 +22°C° 0 mm 1 mps 721 mmHg 41%
    15:00 +22°C° 0 mm 1 mps 721 mmHg 43%
    16:00 +20°C° 0 mm 1 mps 721 mmHg 51%
    17:00 +18°C° 0 mm 1 mps 721 mmHg 58%
    18:00 +14°C° 0 mm 0 mps 721 mmHg 66%
    19:00 +13°C° 0 mm 0 mps 721 mmHg 68%
    20:00 +14°C° 0 mm 1 mps 722 mmHg 69%
    21:00 +13°C° 0 mm 1 mps 722 mmHg 71%
    22:00 +13°C° 0 mm 1 mps 722 mmHg 72%
    23:00 +13°C° 0 mm 1 mps 723 mmHg 73%
    Show more